Location: Proctor
(47.8934°N, 114.3048°W)
Time: 04:06:30
(UTC+00:00)

AO-109 - Pass Details

Date: 04 July 2022
Orbit: 470 x 506 km, 60.7° (Epoch: 07 August)

Event Time Altitude Azimuth Distance (km) Brightness Sun altitude
Exits shadow 10:49:24 10° 211° (SSW) 1,671 ? -7.7°
Reaches altitude 10° 10:49:28 10° 211° (SSW) 1,644 ? -7.7°
Maximum altitude 10:53:05 60° 131° (SE) 558 ? -7.3°
Drops below altitude 10° 10:56:47 10° 51° (NE) 1,677 ? -6.8°
Sets 10:58:59 0° 48° (NE) 2,569 ? -6.6°
